Regional Weather Roundup
Issued by NWS

Home | Current Version | Previous Version | Graphics & Text | Print | Product List | Glossary Off
Versions: 1 2 3 4 5 6 7 8 9 10 11 12 13 14 15 16 17 18 19 20 21 22 23 24 25 26 27 28 29 30 31 32 33 34 35 36 37 38 39 40 41 42 43 44 45 46 47 48 49 50

000
ASUS43 KTOP 301059
RWRKS

WEATHER ROUNDUP FOR KANSAS
NATIONAL WEATHER SERVICE GOODLAND KS
600 AM CDT WED JUL 30 2014

NOTE:  "FAIR" INDICATES FEW OR NO CLOUDS BELOW 12,000 FEET WITH NO
SIGNIFICANT WEATHER AND/OR OBSTRUCTIONS TO VISIBILITY.

KSZ001>006-013>018-027>032-041>047-301200-
NORTHWEST KANSAS

CITY           SKY/WX    TMP DP  RH WIND       PRES   REMARKS
GOODLAND       LGT RAIN  61  59  93 NE15G23   30.18R
HAYS           CLOUDY    68  55  64 E17       30.11R
HILL CITY      CLOUDY    67  56  67 E15G21    30.14R
RUSSELL        CLOUDY    68  58  70 NE16      30.08F
$$

KSZ061>065-074>080-084>089-301200-
SOUTHWEST KANSAS

CITY           SKY/WX    TMP DP  RH WIND       PRES   REMARKS
DODGE CITY     RAIN      64  62  93 E8        30.08F FOG
ELKHART          N/A     67  61  81 W13         N/A
GARDEN CITY    RAIN      64  64 100 E16       30.05F FOG
GREAT BEND     CLOUDY    68  61  77 NE8       30.08R
LIBERAL        CLOUDY    66  63  88 SE6       30.04S
$$

KSZ066>073-081>083-090>101-301200-
SOUTHEAST KANSAS

CITY           SKY/WX    TMP DP  RH WIND       PRES   REMARKS
CHANUTE        CLOUDY    68  63  84 N5        30.08R
COFFEYVILLE    MOCLDY    67  64  90 CALM      30.06R
HUTCHINSON     CLOUDY    66  60  81 E6        30.07S
NEWTON         CLOUDY    66  55  68 NE6       30.11S
PARSONS        CLOUDY    70  61  73 CALM      30.08R
WICHITA INTL   CLOUDY    70  61  73 E3        30.06S
WICHITA JABRA  CLOUDY    66  60  81 NW3       30.07R
WINFIELD       CLOUDY    70  63  78 E6        30.06F
$$

KSZ007>012-019>026-033>040-048>060-102>105-301200-
NORTHEAST KANSAS

CITY           SKY/WX    TMP DP  RH WIND       PRES   REMARKS
CONCORDIA      CLOUDY    64  63  96 CALM      30.12R
EMPORIA        CLOUDY    67  62  84 NE7       30.09S
LAWRENCE       CLOUDY    68  61  78 N3        30.10R
MANHATTAN      LGT RAIN  66  64  93 CALM      30.11S
OLATHE IND     CLOUDY    68  61  78 N3        30.10S
OLATHE EXE     CLOUDY    69  60  73 CALM      30.09S
SALINA         CLOUDY    70  58  65 NE14G21   30.10F
TOPEKA BILLARD CLOUDY    68  62  81 N3        30.10S
TOPEKA FORBES  CLOUDY    69  61  75 CALM      30.10S
$$



USA.gov is the U.S. government's official web portal to all federal, state and local government web resources and services.